Tracking 23757 objects as of 26-Oct-2021
HD Live streaming from Space Station
objects crossing your sky now

SL-14 DEB

Track SL-14 DEB now!
10-day predictions


NORAD ID: 47080
Int'l Code: 1991-056DE
Perigee: 913.5 km
Apogee: 1,175.8 km
Inclination: 82.5 °
Period: 105.9 minutes
Semi major axis: 7415 km
RCS: Unknown
Launch date: August 15, 1991
Source: Commonwealth of Independent States (former USSR) (CIS)
Launch site: PLESETSK MISSILE AND SPACE COMPLEX (PKMTR)

Note: This is SATELLITE DEBRIS
aabbcc
Your satellite tracking list
Your tracking list is empty




NASA's NSSDC Master Catalog

Two Line Element Set (TLE):
1 47080U 91056DE  21297.50879773  .00001748  00000-0  21161-2 0  9990
2 47080  82.5302 223.1961 0176871 206.4428 152.7614 13.59489476 48083
Source of the keplerian elements: AFSPC